Tracking 29892 objects as of 21-Nov-2024
HD Live streaming from Space Station
objects crossing your sky now

STARLINK-31930

Track STARLINK-31930 now!
10-day predictions
STARLINK-31930 is classified as:


NORAD ID: 60596
Int'l Code: 2024-150P
Perigee: 481.3 km
Apogee: 483.3 km
Inclination: 53.2 °
Period: 94.1 minutes
Semi major axis: 6853 km
RCS: Unknown
Launch date: August 20, 2024
Source: United States (US)
Launch site: AIR FORCE EASTERN TEST RANGE (AFETR)
Your satellite tracking list
Your tracking list is empty




NASA's NSSDC Master Catalog

Two Line Element Set (TLE):
1 60596U 24150P   24324.58640240 -.00001391  00000-0 -34813-4 0  9991
2 60596  53.1596 353.6441 0001415  98.3368 261.7793 15.30215059 15148
Source of the keplerian elements: AFSPC